Total_Precipitation_Accumulation
0.06 0.07 0.07 0.06 0.06 0.07 0.08 0.11 0.12 0.09 0.06 0.05 0.05 0.08 0.16 0.21 0.24 0.26 0.23 0.09 0.04 0.01 0.02 0.04 0.08 0.11 0.15 0.17 0.18 0.17 0.14 0.12 0.12 0.14 0.16 0.18 0.17 0.16
0.07 0.06 0.06 0.07 0.08 0.09 0.11 0.12 0.14 0.15 0.12 0.07 0.06 0.10 0.17 0.21 0.27 0.27 0.22 0.16 0.08 0.04 0.04 0.16 0.27 0.27 0.28 0.25 0.22 0.23 0.24 0.23 0.22 0.22 0.24 0.24 0.22 0.20
0.05 0.06 0.06 0.06 0.08 0.08 0.11 0.15 0.17 0.20 0.19 0.09 0.07 0.14 0.20 0.24 0.29 0.27 0.22 0.18 0.13 0.10 0.08 0.18 0.45 0.65 0.58 0.45 0.37 0.32 0.32 0.33 0.32 0.32 0.35 0.35 0.31 0.23
0.06 0.06 0.06 0.06 0.07 0.08 0.11 0.13 0.14 0.17 0.20 0.14 0.11 0.16 0.22 0.30 0.36 0.34 0.29 0.23 0.18 0.19 0.18 0.20 0.38 0.80 0.91 0.69 0.59 0.50 0.42 0.42 0.41 0.42 0.43 0.40 0.32 0.23
0.06 0.08 0.08 0.09 0.09 0.10 0.13 0.14 0.15 0.16 0.22 0.25 0.21 0.21 0.26 0.37 0.44 0.40 0.30 0.24 0.18 0.18 0.22 0.27 0.41 0.95 1.32 1.12 0.86 0.76 0.62 0.54 0.48 0.48 0.49 0.45 0.33 0.21
0.06 0.08 0.09 0.11 0.12 0.13 0.13 0.15 0.18 0.20 0.19 0.21 0.22 0.26 0.31 0.38 0.40 0.40 0.29 0.23 0.18 0.15 0.19 0.28 0.43 0.92 1.46 1.66 1.32 1.07 0.88 0.71 0.59 0.49 0.44 0.38 0.26 0.16
0.06 0.08 0.08 0.09 0.11 0.12 0.13 0.16 0.21 0.22 0.19 0.17 0.19 0.24 0.31 0.34 0.31 0.28 0.24 0.20 0.14 0.13 0.15 0.23 0.44 0.95 1.40 1.73 1.67 1.27 0.96 0.78 0.62 0.50 0.40 0.31 0.22 0.14
0.09 0.08 0.04 0.04 0.06 0.10 0.15 0.17 0.19 0.17 0.17 0.18 0.18 0.16 0.19 0.21 0.19 0.18 0.16 0.17 0.12 0.09 0.10 0.20 0.43 0.95 1.38 1.61 1.58 1.20 0.90 0.76 0.65 0.55 0.46 0.37 0.27 0.18
0.09 0.06 0.03 0.02 0.04 0.06 0.09 0.12 0.14 0.16 0.16 0.17 0.16 0.11 0.14 0.18 0.16 0.18 0.13 0.14 0.14 0.08 0.07 0.20 0.43 0.78 1.11 1.29 1.19 0.98 0.83 0.73 0.65 0.56 0.47 0.37 0.25 0.16
0.05 0.04 0.03 0.04 0.05 0.07 0.09 0.13 0.19 0.19 0.15 0.14 0.15 0.16 0.22 0.20 0.12 0.11 0.10 0.17 0.18 0.08 0.05 0.18 0.37 0.56 0.74 0.81 0.73 0.65 0.60 0.56 0.49 0.41 0.32 0.22 0.13 0.07
0.03 0.04 0.04 0.07 0.07 0.13 0.17 0.22 0.30 0.34 0.27 0.23 0.26 0.35 0.38 0.26 0.14 0.12 0.14 0.17 0.12 0.06 0.06 0.14 0.26 0.33 0.41 0.44 0.38 0.33 0.31 0.28 0.24 0.19 0.14 0.09 0.04 0.02
0.02 0.04 0.07 0.11 0.11 0.19 0.21 0.24 0.32 0.36 0.28 0.24 0.29 0.39 0.38 0.33 0.28 0.23 0.18 0.11 0.05 0.05 0.08 0.12 0.15 0.15 0.21 0.23 0.18 0.14 0.13 0.11 0.08 0.06 0.04 0.02 0.01 0.00
0.02 0.06 0.10 0.13 0.13 0.20 0.25 0.27 0.36 0.37 0.28 0.22 0.25 0.29 0.33 0.33 0.29 0.30 0.21 0.10 0.05 0.05 0.07 0.09 0.11 0.11 0.10 0.12 0.09 0.06 0.05 0.04 0.03 0.02 0.01 0.00 0.00 0.00
0.04 0.10 0.12 0.11 0.13 0.21 0.24 0.31 0.45 0.47 0.32 0.22 0.18 0.18 0.20 0.24 0.24 0.19 0.13 0.08 0.06 0.06 0.07 0.06 0.08 0.09 0.07 0.05 0.04 0.03 0.02 0.01 0.01 0.00 0.00 0.00 0.00 0.00
0.04 0.14 0.14 0.09 0.16 0.26 0.35 0.42 0.50 0.47 0.34 0.23 0.17 0.14 0.13 0.13 0.15 0.15 0.12 0.07 0.06 0.06 0.05 0.04 0.03 0.04 0.04 0.03 0.02 0.02 0.01 0.01 0.00 0.00 0.00 0.00 0.00 0.00
0.03 0.09 0.12 0.10 0.16 0.30 0.41 0.47 0.47 0.45 0.39 0.28 0.21 0.16 0.13 0.12 0.13 0.11 0.09 0.06 0.06 0.08 0.06 0.03 0.01 0.01 0.01 0.01 0.01 0.01 0.01 0.01 0.01 0.01 0.01 0.01 0.01 0.00
0.02 0.04 0.05 0.06 0.12 0.22 0.31 0.36 0.35 0.36 0.39 0.32 0.25 0.20 0.17 0.15 0.14 0.12 0.09 0.06 0.06 0.06 0.05 0.03 0.01 0.01 0.00 0.00 0.00 0.01 0.01 0.01 0.01 0.01 0.01 0.01 0.00 0.00
0.02 0.03 0.07 0.10 0.15 0.21 0.26 0.27 0.27 0.27 0.29 0.27 0.24 0.20 0.17 0.15 0.14 0.11 0.07 0.05 0.04 0.03 0.02 0.01 0.01 0.01 0.01 0.01 0.00 0.01 0.01 0.01 0.01 0.01 0.00 0.00 0.00 0.00
0.01 0.03 0.06 0.12 0.19 0.21 0.22 0.22 0.21 0.21 0.20 0.19 0.19 0.18 0.15 0.12 0.10 0.07 0.04 0.03 0.02 0.01 0.01 0.01 0.00 0.00 0.00 0.01 0.01 0.00 0.01 0.01 0.01 0.01 0.00 0.00 0.00 0.00
0.01 0.03 0.06 0.10 0.17 0.21 0.20 0.19 0.18 0.17 0.15 0.14 0.15 0.14 0.11 0.08 0.06 0.03 0.02 0.01 0.01 0.01 0.01 0.01 0.00 0.00 0.00 0.00 0.01 0.01 0.00 0.01 0.01 0.00 0.00 0.00 0.00 0.00
0.02 0.03 0.05 0.08 0.11 0.15 0.15 0.14 0.13 0.12 0.11 0.09 0.10 0.11 0.11 0.07 0.04 0.02 0.01 0.01 0.01 0.01 0.01 0.01 0.00 0.00 0.00 0.00 0.01 0.01 0.00 0.00 0.00 0.00 0.00 0.00 0.00 0.00
0.03 0.04 0.05 0.07 0.09 0.11 0.10 0.09 0.08 0.08 0.07 0.07 0.08 0.09 0.09 0.07 0.04 0.02 0.02 0.01 0.01 0.01 0.00 0.00 0.00 0.00 0.00 0.00 0.01 0.01 0.00 0.00 0.00 0.00 0.00 0.00 0.00 0.00
0.04 0.04 0.04 0.06 0.08 0.09 0.09 0.08 0.09 0.08 0.07 0.07 0.07 0.08 0.08 0.06 0.05 0.03 0.02 0.01 0.00 0.00 0.00 0.00 0.00 0.00 0.00 0.00 0.00 0.01 0.01 0.01 0.00 0.00 0.00 0.00 0.00 0.00